Weather History for Cut Bank, MT

Change the Weather History Date:

Saturday, March 16, 2013

  Actual Average Record
Temperature  
Mean Temperature 29 °F 32 °F  
Max Temperature 38 °F 43 °F 69 °F (1910)
Min Temperature 19 °F 20 °F -12 °F (1943)
Degree Days  
Heating Degree Days 36 34  
Month to date heating degree days 546 577  
Since 1 July heating degree days 6285 6637  
Cooling Degree Days 0 0  
Month to date cooling degree days 0 0  
Year to date cooling degree days 0 0  
Moisture  
Dew Point 21 °F    
Average Humidity 82    
Maximum Humidity 100    
Minimum Humidity 64    
Precipitation  
Precipitation T in 0.02 in 0.32 in (1987)
Month to date precipitation 0.02 0.23  
Year to date precipitation 0.75 0.64  
Snow  
Snow 0.00 in - - ()
Snow Depth 0.00 in    
Sea Level Pressure  
Sea Level Pressure 29.92 in    
Wind  
Wind Speed 8 mph (SE)    
Max Wind Speed 16 mph    
Max Gust Speed 20 mph    
Visibility 7 miles    
Events Snow    
T = Trace of Precipitation, MM = Missing Value Source: NWS Daily Summary

Daily Weather History Graph

Daily Weather History Graph

Search for Another Location

Airport:

Trip Planner

Search our weather history database for the weather conditions in past years. The results will help you decide how hot, cold, wet, or windy it might be!

Date:

Astronomy

Mar. 16, 2013 Rise Set
Actual Time 7:39 AM MDT 7:36 PM MDT
Civil Twilight 7:08 AM MDT 8:08 PM MDT
Nautical Twilight 6:32 AM MDT 8:44 PM MDT
Astronomical Twilight 5:54 AM MDT 9:22 PM MDT
Moon 9:47 AM MDT (3/16) 12:17 AM MDT (3/16)
Length of Visible Light 12h 59m
Length of Day
11h 56m
Waxing Crescent, 23% of the Moon is Illuminated
Mar 16
Waxing Crescent
Mar 19
First Quarter
Mar 27
Full
Apr 2
Last Quarter
Apr 10
New

Hourly Weather History & Observations

Time (MDT) Temp. Windchill Dew Point Humidity Pressure Visibility Wind Dir Wind Speed Gust Speed Precip Events Conditions
12:54 AM 19.4 °F 14.3 °F 17.6 °F 93% 30.06 in 8.0 mi North 3.5 mph - N/A   Overcast
12:56 AM 19.0 °F 12.3 °F 17.1 °F 92% 30.17 in 9.0 mi NNE 4.6 mph - N/A   Overcast
1:56 AM 19.9 °F - 17.1 °F 89% 30.15 in 9.0 mi Calm Calm - N/A   Overcast
2:29 AM 19.4 °F 12.8 °F 15.8 °F 86% 30.02 in 10.0 mi ESE 4.6 mph - N/A   Overcast
2:56 AM 19.0 °F 12.3 °F 16.0 °F 88% 30.14 in 8.0 mi SE 4.6 mph - N/A   Overcast
3:05 AM 19.4 °F 11.5 °F 17.6 °F 93% 30.02 in 6.0 mi SE 5.8 mph - N/A   Overcast
3:47 AM 19.4 °F 9.5 °F 17.6 °F 93% 30.00 in 2.0 mi SSE 8.1 mph - N/A   Overcast
3:56 AM 19.0 °F 11.1 °F 18.0 °F 96% 30.11 in 2.0 mi SE 5.8 mph - N/A   Overcast
4:25 AM 19.4 °F 9.5 °F 17.6 °F 93% 29.98 in 1.5 mi SE 8.1 mph - N/A   Overcast
4:56 AM 19.9 °F - 19.0 °F 96% 30.09 in 1.2 mi Calm Calm - N/A   Overcast
5:15 AM 19.4 °F 12.8 °F 17.6 °F 93% 29.97 in 0.8 mi SE 4.6 mph - 0.00 in Snow Light Snow
5:31 AM 19.4 °F 11.5 °F 19.4 °F 100% 29.96 in 1.2 mi ESE 5.8 mph - 0.00 in Snow Light Snow
5:48 AM 19.4 °F 11.5 °F 17.6 °F 93% 29.96 in 2.5 mi SE 5.8 mph - 0.00 in   Overcast
5:56 AM 19.9 °F 11.1 °F 18.0 °F 92% 30.08 in 2.5 mi ESE 6.9 mph - 0.00 in   Overcast
6:06 AM 19.4 °F 8.6 °F 17.6 °F 93% 29.94 in 3.0 mi SE 9.2 mph - N/A   Overcast
6:56 AM 19.9 °F 12.1 °F 19.0 °F 96% 30.08 in 4.0 mi SSE 5.8 mph - 0.00 in   Overcast
7:56 AM 21.0 °F 10.6 °F 19.0 °F 92% 30.06 in 5.0 mi SE 9.2 mph - N/A   Overcast
8:56 AM 21.0 °F 10.6 °F 19.9 °F 96% 30.05 in 5.0 mi SE 9.2 mph - N/A   Overcast
9:18 AM 21.2 °F 12.6 °F 19.4 °F 93% 29.91 in - SSE 6.9 mph - N/A   Unknown
9:51 AM 21.2 °F 11.7 °F 19.4 °F 93% 29.91 in 7.0 mi SE 8.1 mph - N/A   Overcast
9:56 AM 21.9 °F 12.5 °F 19.9 °F 92% 30.05 in 7.0 mi ESE 8.1 mph - N/A   Overcast
10:56 AM 23.0 °F 13.1 °F 21.0 °F 92% 30.03 in 9.0 mi SE 9.2 mph - N/A   Overcast
11:37 AM 24.8 °F 15.3 °F 21.2 °F 86% 29.87 in 10.0 mi SE 9.2 mph - N/A   Overcast
11:46 AM 24.8 °F 13.4 °F 21.2 °F 86% 29.88 in 10.0 mi SE 12.7 mph - N/A   Unknown
11:56 AM 26.1 °F 16.2 °F 21.9 °F 84% 30.00 in 10.0 mi SSE 10.4 mph - N/A   Unknown
12:16 PM 26.6 °F 15.7 °F 21.2 °F 80% 29.87 in 10.0 mi SSE 12.7 mph - N/A   Overcast
12:56 PM 30.0 °F 20.5 °F 23.0 °F 75% 29.97 in 10.0 mi SE 11.5 mph - N/A   Mostly Cloudy
1:05 PM 30.2 °F 21.3 °F 23.0 °F 75% 29.84 in 10.0 mi SE 10.4 mph - N/A   Scattered Clouds
1:56 PM 34.0 °F 25.5 °F 24.1 °F 67% 29.93 in 10.0 mi SE 11.5 mph - N/A   Clear
2:56 PM 36.0 °F 28.0 °F 24.1 °F 62% 29.88 in 10.0 mi SE 11.5 mph - N/A   Clear
3:56 PM 35.1 °F 26.4 °F 24.1 °F 64% 29.84 in 10.0 mi ESE 12.7 mph - N/A   Clear
4:56 PM 37.0 °F 28.9 °F 26.1 °F 65% 29.81 in 10.0 mi SE 12.7 mph - N/A   Overcast
5:56 PM 37.0 °F 34.5 °F 27.0 °F 67% 29.80 in 10.0 mi Variable 3.5 mph - 0.00 in   Overcast
6:56 PM 33.1 °F 24.9 °F 27.0 °F 78% 29.77 in 10.0 mi ESE 10.4 mph - 0.00 in   Partly Cloudy
7:56 PM 30.9 °F 21.7 °F 26.1 °F 82% 29.75 in 10.0 mi SE 11.5 mph - N/A   Unknown
8:56 PM 28.9 °F 19.8 °F 26.1 °F 89% 29.74 in 10.0 mi ESE 10.4 mph - N/A   Unknown
9:56 PM 27.0 °F 18.7 °F 26.1 °F 96% 29.73 in 10.0 mi ESE 8.1 mph - N/A   Unknown
10:56 PM 24.1 °F 18.2 °F 23.0 °F 96% 29.70 in 7.0 mi ESE 4.6 mph - N/A   Unknown
11:04 PM 24.8 °F 17.9 °F 23.0 °F 93% 29.57 in 9.0 mi ESE 5.8 mph - N/A   Partly Cloudy
11:48 PM 24.8 °F 14.6 °F 23.0 °F 93% 29.54 in 2.5 mi ESE 10.4 mph - N/A   Mostly Cloudy
11:56 PM 24.1 °F 14.4 °F 24.1 °F 100% 29.65 in 0.8 mi SE 9.2 mph - N/A   Mist